COSMOS 2251 DEB, 34913

Orbit data source: Space-Track

COSMOS 2251 DEB, 34913 is space debris in LEO originally from a launch on Wed, 16 Jun 1993 UTC launched from the Plesetsk Missile And Space Complex (PKMTR). The debris from Iridium 33, an American commercial communications satellite, has been tracked extensively since its accidental collision with the defunct Russian satellite Cosmos 2251 in 2009. This event, occurring at high speed in low Earth orbit (LEO), generated thousands of pieces of space debris, significantly increasing the risk of further collisions. The Iridium 33 debris cloud has impacted space traffic management and orbital debris mitigation strategies, making it a subject of ongoing study in space situational awareness.

Loading next visibility...
Identifier
34913, 1993-036ADJ
Orbit
LEO
Country
Flag of CISCIS
Related business
Manufacturer
Unknown
Mission
Spacecraft
Bus & Motor
Unknown
Mass
Unknown
Launch date (UTC)
1993-06-16 (33 years ago)
Launch vehicle
Unknown
Launch site
Plesetsk Missile And Space Complex (PKMTR)
Object type
Payload
Rocket body
Debris
Shape & HBR
Unknown shape, 0.1 m
Radar Cross Section
Small (<0.1 m²)

Expand to show TLE details & history
Last TLE update: 1 day ago

TLE from 1 day ago
0 COSMOS 2251 DEB
1 34913U 93036ADJ 26206.80381427  .00000080  00000-0  37645-4 0  9997
2 34913  74.0259 230.0219 0022250 287.6917 247.7297 14.34695480684153
Epoch: 2026-07-25T19:17Z
TLE epoch observation values (Epoch: 2026-07-25T19:17:29.552Z)
Latitude
4.54539°
Longitude
175.84086°
Altitude
784.276 km
Speed
7.459 km/s
True Right ascension
03h 14m 53s
True Declination
4° 31' 06"
Sunlit
Object was in daylight at epoch
Visualization orbit readout
Latitude
Unknown
Longitude
Unknown
Altitude
Unknown
Speed
Unknown
Apparent Right ascension
Unknown
Apparent Declination
Unknown
Sunlit
N/A
Visualization observer readout
Local Sidereal Time
18:05:16
Azimuth
Unknown
Elevation
Unknown
Doppler factor
Unknown
Orbital elements
Apogee altitude
789.618 km
Perigee altitude
757.792 km
Semi-major axis
7,151.842 km
Eccentricity
0.00223
Inclination
74.0259°
RAAN
230.0219°
Arg. of periapsis
287.6917°
True anomaly
247.494°
Mean anomaly
247.7297°
Eccentric anomaly
247.61183°
Mean motion
3.58853 °/min
Orbital period
100.32 mins
BSTAR
0.000037645
Loading maneuver chart data...
Computing Atmospheric mass density...

Documentation

Showing up to 5 results
|